Location: ?ejeti?ky
(50.4060°N, 14.9016°E)
Time: 22:27:48
(UTC+00:00)

STARLINK-1364 - Pass Details

Date: 08 October 2020
Orbit: 548 x 551 km, 53.0° (Epoch: 23 October)

Event Time Altitude Azimuth Distance (km) Brightness Sun altitude
Exits shadow 02:49:56 82° 127° (SE) 561 3.5 -23.1°
Drops below altitude 10° 02:53:55 10° 113° (ESE) 1,824 6.9 -22.5°
Sets 02:56:09 0° 113° (ESE) 2,717 7.9 -22.2°
